OBJECT G

基本信息
目录编号:
63297
目录名称:
OBJECT G
国际标识:
2025-055G
轨道中心:
EARTH
物体状态:
在轨
发射日期:
2025-03-17 UTC
国别:
中国 (CN)
轨道信息
数据来源: 国际轨道数据
星历时间: 2026-09-04T04:19:32+0800
半长轴: 6861.025km
偏心率: 0.0007122
轨道倾角: 97.658°
近地点辐角: 235.061°
升交点赤经: 31.905°
平近点角: 124.996°
近地点: 478.001km
远地点: 487.775km
周期: 94.263分钟
每日圈数: 15.276341
详细信息
发射场:
JSC
轨道高度:
LEO
数据来源:
AOE Working Group
参考系:
TEME
时间系统:
UTC
历元类型:
SGP4
2D轨道图
3D轨道图
轨道高度分析图
轨道倾角分析图
轨道综合分析图
查看轨道综合分析图